| time (UTC) | temp C | wind direction | speed KPH | gust KPH | rain 1hr cm | rain 24hr cm | rain mn cm | humidity % | barometer mb |
| 20260507220458 | 10 | 151 | 0.0 | 3.2 | 0.00 | 0.00 | 0.00 | 79 | 1013.3 |
| 20260507220000 | 10 | 151 | 0.0 | 3.2 | 0.00 | 0.00 | 0.00 | 79 | 1013.4 |
| 20260507214959 | 10 | 169 | 1.6 | 3.2 | 0.00 | 0.00 | 0.00 | 79 | 1013.5 |
| 20260507214458 | 10 | 169 | 0.0 | 0.0 | 0.00 | 0.00 | 0.00 | 79 | 1013.4 |
| 20260507213958 | 10 | 169 | 0.0 | 0.0 | 0.00 | 0.00 | 0.00 | 79 | 1013.4 |
| 20260507213459 | 10 | 169 | 0.0 | 0.0 | 0.00 | 0.00 | 0.00 | 78 | 1013.3 |
| 20260507212958 | 10 | 169 | 0.0 | 0.0 | 0.00 | 0.00 | 0.00 | 78 | 1013.3 |
| 20260507212459 | 10 | 169 | 0.0 | 0.0 | 0.00 | 0.00 | 0.00 | 78 | 1013.3 |
| 20260507211959 | 10 | 169 | 0.0 | 1.6 | 0.00 | 0.00 | 0.00 | 78 | 1013.3 |
| 20260507211458 | 10 | 169 | 0.0 | 1.6 | 0.00 | 0.00 | 0.00 | 78 | 1013.3 |
| 20260507210958 | 10 | 169 | 0.0 | 0.0 | 0.00 | 0.00 | 0.00 | 78 | 1013.2 |
| 20260507210458 | 10 | 169 | 0.0 | 0.0 | 0.00 | 0.00 | 0.00 | 78 | 1013.2 |
| 20260507205000 | 11 | 169 | 0.0 | 0.0 | 0.00 | 0.00 | 0.00 | 77 | 1013.2 |
| 20260507204458 | 11 | 169 | 0.0 | 0.0 | 0.00 | 0.00 | 0.00 | 77 | 1013.2 |
| 20260507203958 | 11 | 169 | 0.0 | 0.0 | 0.00 | 0.00 | 0.00 | 77 | 1013.1 |
| 20260507203458 | 11 | 169 | 0.0 | 3.2 | 0.00 | 0.00 | 0.00 | 76 | 1013.0 |
| 20260507202958 | 11 | 169 | 0.0 | 3.2 | 0.00 | 0.00 | 0.00 | 76 | 1012.9 |
| 20260507202459 | 11 | 160 | 0.0 | 4.8 | 0.00 | 0.00 | 0.00 | 76 | 1012.8 |
| 20260507202000 | 11 | 156 | 1.6 | 4.8 | 0.00 | 0.00 | 0.00 | 75 | 1012.8 |
| 20260507201459 | 11 | 171 | 0.0 | 3.2 | 0.00 | 0.00 | 0.00 | 75 | 1012.8 |
| 20260507200459 | 11 | 169 | 0.0 | 4.8 | 0.00 | 0.00 | 0.00 | 74 | 1012.7 |
| 20260507200000 | 11 | 169 | 0.0 | 4.8 | 0.00 | 0.00 | 0.00 | 74 | 1012.6 |
| 20260507195457 | 11 | 190 | 1.6 | 4.8 | 0.00 | 0.00 | 0.00 | 74 | 1012.6 |
| 20260507194500 | 12 | 184 | 1.6 | 8.0 | 0.00 | 0.00 | 0.00 | 73 | 1012.6 |
| 20260507193958 | 12 | 190 | 4.8 | 9.7 | 0.00 | 0.00 | 0.00 | 73 | 1012.5 |
| 20260507192958 | 12 | 175 | 4.8 | 8.0 | 0.00 | 0.00 | 0.00 | 73 | 1012.5 |
| 20260507192458 | 12 | 192 | 3.2 | 8.0 | 0.00 | 0.00 | 0.00 | 72 | 1012.5 |
| 20260507191501 | 12 | 160 | 6.4 | 9.7 | 0.00 | 0.00 | 0.00 | 72 | 1012.5 |
| 20260507190959 | 12 | 167 | 6.4 | 9.7 | 0.00 | 0.00 | 0.00 | 71 | 1012.4 |
| 20260507190459 | 12 | 178 | 4.8 | 12.9 | 0.00 | 0.00 | 0.00 | 71 | 1012.5 |
| 20260507185959 | 12 | 164 | 9.7 | 11.3 | 0.00 | 0.00 | 0.00 | 70 | 1012.3 |
| 20260507184958 | 13 | 152 | 4.8 | 11.3 | 0.00 | 0.00 | 0.00 | 68 | 1012.3 |
| 20260507184459 | 13 | 170 | 11.3 | 11.3 | 0.00 | 0.00 | 0.00 | 67 | 1012.4 |
| 20260507183458 | 13 | 208 | 3.2 | 6.4 | 0.00 | 0.00 | 0.00 | 65 | 1012.3 |
| 20260507182958 | 13 | 199 | 1.6 | 6.4 | 0.00 | 0.00 | 0.00 | 65 | 1012.2 |
| 20260507182459 | 13 | 227 | 4.8 | 8.0 | 0.00 | 0.00 | 0.00 | 65 | 1012.1 |
| 20260507182000 | 14 | 240 | 3.2 | 8.0 | 0.00 | 0.00 | 0.00 | 65 | 1012.2 |
| 20260507181459 | 14 | 213 | 3.2 | 8.0 | 0.00 | 0.00 | 0.00 | 66 | 1012.2 |
| 20260507180959 | 14 | 201 | 4.8 | 6.4 | 0.00 | 0.00 | 0.00 | 67 | 1012.3 |
| 20260507180500 | 14 | 199 | 4.8 | 4.8 | 0.00 | 0.00 | 0.00 | 66 | 1012.3 |
| 20260507175500 | 14 | 205 | 3.2 | 6.4 | 0.00 | 0.00 | 0.00 | 66 | 1012.2 |
| 20260507175000 | 14 | 200 | 0.0 | 6.4 | 0.00 | 0.00 | 0.00 | 65 | 1012.3 |
| 20260507174501 | 15 | 159 | 1.6 | 6.4 | 0.00 | 0.00 | 0.00 | 65 | 1012.3 |
| 20260507174000 | 15 | 240 | 1.6 | 6.4 | 0.00 | 0.00 | 0.00 | 66 | 1012.3 |
| 20260507173459 | 15 | 215 | 4.8 | 8.0 | 0.00 | 0.00 | 0.00 | 66 | 1012.3 |
| 20260507172959 | 15 | 167 | 4.8 | 9.7 | 0.00 | 0.00 | 0.00 | 66 | 1012.3 |
| 20260507172500 | 15 | 218 | 1.6 | 9.7 | 0.00 | 0.00 | 0.00 | 67 | 1012.3 |
| 20260507172000 | 15 | 191 | 6.4 | 9.7 | 0.00 | 0.00 | 0.00 | 66 | 1012.2 |
| 20260507171459 | 15 | 285 | 4.8 | 6.4 | 0.00 | 0.00 | 0.00 | 66 | 1012.3 |
| 20260507171000 | 15 | 275 | 3.2 | 8.0 | 0.00 | 0.00 | 0.00 | 66 | 1012.3 |
| 20260507170459 | 15 | 253 | 3.2 | 8.0 | 0.00 | 0.00 | 0.00 | 66 | 1012.4 |
| 20260507170001 | 15 | 268 | 4.8 | 12.9 | 0.00 | 0.00 | 0.00 | 66 | 1012.4 |
| 20260507165500 | 15 | 332 | 4.8 | 12.9 | 0.00 | 0.00 | 0.00 | 66 | 1012.4 |
| 20260507165000 | 15 | 275 | 4.8 | 12.9 | 0.00 | 0.00 | 0.00 | 66 | 1012.3 |
| 20260507164459 | 15 | 219 | 4.8 | 12.9 | 0.00 | 0.00 | 0.00 | 66 | 1012.4 |
| 20260507163959 | 15 | 271 | 6.4 | 11.3 | 0.00 | 0.00 | 0.00 | 67 | 1012.3 |
| 20260507163500 | 15 | 267 | 6.4 | 12.9 | 0.00 | 0.00 | 0.00 | 66 | 1012.3 |
| 20260507163000 | 15 | 232 | 4.8 | 12.9 | 0.00 | 0.00 | 0.00 | 66 | 1012.3 |
| 20260507162459 | 15 | 235 | 4.8 | 12.9 | 0.00 | 0.00 | 0.00 | 67 | 1012.3 |
| 20260507162000 | 15 | 245 | 11.3 | 16.1 | 0.00 | 0.00 | 0.00 | 67 | 1012.3 |
| 20260507161000 | 15 | 284 | 14.5 | 16.1 | 0.00 | 0.00 | 0.00 | 67 | 1012.3 |
| 20260507160501 | 15 | 252 | 11.3 | 19.3 | 0.00 | 0.00 | 0.00 | 66 | 1012.3 |
| 20260507160001 | 15 | 245 | 6.4 | 19.3 | 0.00 | 0.00 | 0.00 | 66 | 1012.3 |
| 20260507155458 | 15 | 246 | 12.9 | 19.3 | 0.00 | 0.00 | 0.00 | 66 | 1012.3 |
| 20260507154958 | 15 | 242 | 8.0 | 19.3 | 0.00 | 0.00 | 0.00 | 65 | 1012.3 |
| 20260507154458 | 15 | 236 | 6.4 | 17.7 | 0.00 | 0.00 | 0.00 | 64 | 1012.4 |
| 20260507153958 | 16 | 235 | 11.3 | 17.7 | 0.00 | 0.00 | 0.00 | 65 | 1012.4 |
| 20260507153458 | 16 | 210 | 9.7 | 19.3 | 0.00 | 0.00 | 0.00 | 65 | 1012.4 |
| 20260507152959 | 16 | 231 | 9.7 | 16.1 | 0.00 | 0.00 | 0.00 | 64 | 1012.4 |
| 20260507152458 | 16 | 234 | 11.3 | 22.5 | 0.00 | 0.00 | 0.00 | 64 | 1012.4 |
| 20260507151959 | 16 | 187 | 9.7 | 22.5 | 0.00 | 0.00 | 0.00 | 63 | 1012.4 |
| 20260507151458 | 16 | 240 | 9.7 | 17.7 | 0.00 | 0.00 | 0.00 | 62 | 1012.5 |
| 20260507150958 | 16 | 234 | 6.4 | 22.5 | 0.00 | 0.00 | 0.00 | 62 | 1012.6 |
| 20260507150458 | 16 | 231 | 22.5 | 22.5 | 0.00 | 0.00 | 0.00 | 62 | 1012.5 |
| 20260507145459 | 16 | 223 | 6.4 | 17.7 | 0.00 | 0.00 | 0.00 | 62 | 1012.5 |
| 20260507144959 | 16 | 225 | 14.5 | 17.7 | 0.00 | 0.00 | 0.00 | 61 | 1012.6 |
| 20260507144500 | 16 | 221 | 12.9 | 16.1 | 0.00 | 0.00 | 0.00 | 60 | 1012.6 |
| 20260507143458 | 16 | 210 | 12.9 | 19.3 | 0.00 | 0.00 | 0.00 | 60 | 1012.6 |
| 20260507142959 | 16 | 260 | 9.7 | 17.7 | 0.00 | 0.00 | 0.00 | 62 | 1012.5 |
| 20260507142500 | 16 | 231 | 4.8 | 17.7 | 0.00 | 0.00 | 0.00 | 61 | 1012.6 |
| 20260507142001 | 16 | 231 | 11.3 | 19.3 | 0.00 | 0.00 | 0.00 | 60 | 1012.7 |
| 20260507141501 | 16 | 227 | 8.0 | 20.9 | 0.00 | 0.00 | 0.00 | 60 | 1012.8 |
| 20260507140959 | 16 | 205 | 8.0 | 17.7 | 0.00 | 0.00 | 0.00 | 59 | 1012.7 |
| 20260507140459 | 17 | 184 | 9.7 | 14.5 | 0.00 | 0.00 | 0.00 | 60 | 1012.7 |
| 20260507140001 | 16 | 252 | 12.9 | 17.7 | 0.00 | 0.00 | 0.00 | 62 | 1012.7 |
| 20260507135502 | 16 | 232 | 9.7 | 19.3 | 0.00 | 0.00 | 0.00 | 62 | 1012.8 |
| 20260507135000 | 16 | 210 | 3.2 | 19.3 | 0.00 | 0.00 | 0.00 | 62 | 1012.8 |
| 20260507134501 | 16 | 261 | 11.3 | 17.7 | 0.00 | 0.00 | 0.00 | 63 | 1012.8 |
| 20260507134001 | 16 | 238 | 3.2 | 24.1 | 0.00 | 0.00 | 0.00 | 64 | 1012.8 |
| 20260507133500 | 16 | 244 | 16.1 | 24.1 | 0.00 | 0.00 | 0.00 | 64 | 1013.0 |
| 20260507133000 | 15 | 271 | 11.3 | 22.5 | 0.00 | 0.00 | 0.00 | 64 | 1012.9 |
| 20260507132501 | 15 | 253 | 4.8 | 17.7 | 0.00 | 0.00 | 0.00 | 63 | 1012.9 |
| 20260507132000 | 15 | 261 | 12.9 | 19.3 | 0.00 | 0.00 | 0.00 | 63 | 1012.9 |
| 20260507131501 | 16 | 215 | 8.0 | 19.3 | 0.00 | 0.00 | 0.00 | 63 | 1012.9 |
| 20260507130959 | 16 | 217 | 8.0 | 17.7 | 0.00 | 0.00 | 0.00 | 64 | 1012.8 |
| 20260507130001 | 16 | 234 | 11.3 | 19.3 | 0.00 | 0.00 | 0.00 | 65 | 1012.8 |
| 20260507125501 | 16 | 236 | 11.3 | 19.3 | 0.00 | 0.00 | 0.00 | 64 | 1012.8 |
| 20260507125000 | 16 | 219 | 11.3 | 16.1 | 0.00 | 0.00 | 0.00 | 66 | 1012.8 |
| 20260507124459 | 16 | 214 | 8.0 | 16.1 | 0.00 | 0.00 | 0.00 | 66 | 1012.8 |
| 20260507123959 | 16 | 221 | 9.7 | 20.9 | 0.00 | 0.00 | 0.00 | 67 | 1012.8 |
| 20260507123459 | 15 | 227 | 8.0 | 22.5 | 0.00 | 0.00 | 0.00 | 67 | 1012.7 |
| 20260507121959 | 15 | 181 | 12.9 | 17.7 | 0.00 | 0.00 | 0.00 | 69 | 1012.9 |
| 20260507121500 | 15 | 184 | 16.1 | 19.3 | 0.00 | 0.00 | 0.00 | 68 | 1012.9 |
| 20260507121001 | 15 | 161 | 11.3 | 22.5 | 0.00 | 0.00 | 0.00 | 68 | 1012.8 |
| 20260507120500 | 15 | 228 | 11.3 | 19.3 | 0.00 | 0.00 | 0.00 | 68 | 1012.8 |
| 20260507120002 | 15 | 198 | 14.5 | 22.5 | 0.00 | 0.00 | 0.00 | 69 | 1012.8 |
| 20260507114958 | 15 | 179 | 11.3 | 19.3 | 0.00 | 0.00 | 0.00 | 69 | 1012.8 |
| 20260507114458 | 14 | 196 | 16.1 | 24.1 | 0.00 | 0.00 | 0.00 | 68 | 1012.8 |
| 20260507113958 | 14 | 165 | 19.3 | 19.3 | 0.00 | 0.00 | 0.00 | 69 | 1012.8 |
| 20260507113458 | 14 | 213 | 14.5 | 17.7 | 0.00 | 0.00 | 0.00 | 70 | 1012.7 |
| 20260507112959 | 14 | 223 | 8.0 | 19.3 | 0.00 | 0.00 | 0.00 | 70 | 1012.7 |
| 20260507112458 | 14 | 242 | 16.1 | 19.3 | 0.00 | 0.00 | 0.00 | 71 | 1012.7 |
| 20260507112001 | 14 | 192 | 12.9 | 22.5 | 0.00 | 0.00 | 0.00 | 71 | 1012.7 |
| 20260507111459 | 13 | 232 | 12.9 | 22.5 | 0.00 | 0.00 | 0.00 | 71 | 1012.7 |
| 20260507110958 | 13 | 169 | 9.7 | 19.3 | 0.00 | 0.00 | 0.00 | 72 | 1012.7 |
| 20260507110458 | 13 | 213 | 8.0 | 16.1 | 0.00 | 0.00 | 0.00 | 74 | 1012.7 |
| 20260507110001 | 13 | 183 | 8.0 | 19.3 | 0.00 | 0.00 | 0.00 | 75 | 1012.7 |
| 20260507105500 | 13 | 171 | 6.4 | 17.7 | 0.00 | 0.00 | 0.00 | 74 | 1012.7 |
| 20260507105001 | 13 | 173 | 14.5 | 19.3 | 0.00 | 0.00 | 0.00 | 74 | 1012.7 |
| 20260507104459 | 13 | 205 | 6.4 | 17.7 | 0.00 | 0.00 | 0.00 | 74 | 1012.8 |
| 20260507103959 | 13 | 187 | 8.0 | 22.5 | 0.00 | 0.00 | 0.00 | 74 | 1012.8 |
| 20260507103500 | 13 | 185 | 16.1 | 20.9 | 0.00 | 0.00 | 0.00 | 74 | 1012.8 |
| 20260507102959 | 13 | 181 | 8.0 | 19.3 | 0.00 | 0.00 | 0.00 | 74 | 1012.7 |
| 20260507102500 | 13 | 192 | 14.5 | 16.1 | 0.00 | 0.00 | 0.00 | 74 | 1012.7 |
| 20260507102000 | 13 | 158 | 17.7 | 19.3 | 0.00 | 0.00 | 0.00 | 74 | 1012.8 |
| 20260507101500 | 13 | 171 | 11.3 | 19.3 | 0.00 | 0.00 | 0.00 | 74 | 1012.7 |
| 20260507101000 | 13 | 149 | 8.0 | 24.1 | 0.00 | 0.00 | 0.00 | 73 | 1012.7 |
| 20260507100459 | 13 | 169 | 14.5 | 24.1 | 0.00 | 0.00 | 0.00 | 73 | 1012.7 |
| 20260507100001 | 13 | 214 | 8.0 | 22.5 | 0.00 | 0.00 | 0.00 | 73 | 1012.7 |
| 20260507094959 | 13 | 175 | 11.3 | 22.5 | 0.00 | 0.00 | 0.00 | 73 | 1012.7 |
| 20260507094458 | 13 | 149 | 12.9 | 27.4 | 0.00 | 0.00 | 0.00 | 72 | 1012.6 |
| 20260507093959 | 13 | 157 | 19.3 | 27.4 | 0.00 | 0.00 | 0.00 | 71 | 1012.6 |
| 20260507093500 | 13 | 192 | 11.3 | 25.7 | 0.00 | 0.00 | 0.00 | 70 | 1012.7 |
| 20260507093000 | 13 | 168 | 17.7 | 27.4 | 0.00 | 0.00 | 0.00 | 68 | 1012.7 |
| 20260507092459 | 13 | 177 | 11.3 | 24.1 | 0.00 | 0.00 | 0.00 | 69 | 1012.5 |
| 20260507092000 | 13 | 204 | 9.7 | 27.4 | 0.00 | 0.00 | 0.00 | 68 | 1012.6 |
| 20260507091459 | 14 | 167 | 19.3 | 27.4 | 0.00 | 0.00 | 0.00 | 67 | 1012.6 |
| 20260507090500 | 14 | 181 | 9.7 | 24.1 | 0.00 | 0.00 | 0.00 | 71 | 1012.5 |
| 20260507090001 | 14 | 205 | 16.1 | 27.4 | 0.00 | 0.00 | 0.00 | 71 | 1012.5 |
| 20260507085459 | 14 | 131 | 12.9 | 27.4 | 0.00 | 0.00 | 0.00 | 72 | 1012.5 |
| 20260507085000 | 13 | 117 | 12.9 | 25.7 | 0.00 | 0.00 | 0.00 | 73 | 1012.5 |
| 20260507084500 | 13 | 146 | 9.7 | 25.7 | 0.00 | 0.00 | 0.00 | 74 | 1012.5 |
| 20260507084001 | 13 | 139 | 16.1 | 25.7 | 0.00 | 0.00 | 0.00 | 76 | 1012.5 |
| 20260507083500 | 13 | 172 | 17.7 | 27.4 | 0.00 | 0.00 | 0.00 | 78 | 1012.4 |
| 20260507082959 | 12 | 175 | 12.9 | 27.4 | 0.00 | 0.00 | 0.00 | 78 | 1012.5 |
| 20260507082500 | 11 | 153 | 11.3 | 24.1 | 0.00 | 0.00 | 0.00 | 79 | 1012.4 |
| 20260507082000 | 11 | 201 | 9.7 | 25.7 | 0.00 | 0.00 | 0.00 | 80 | 1012.3 |
| 20260507081459 | 11 | 200 | 11.3 | 25.7 | 0.00 | 0.00 | 0.00 | 81 | 1012.3 |
| 20260507081000 | 11 | 170 | 8.0 | 17.7 | 0.00 | 0.00 | 0.00 | 82 | 1012.4 |
| 20260507080501 | 11 | 165 | 16.1 | 22.5 | 0.00 | 0.00 | 0.00 | 82 | 1012.4 |
| 20260507080003 | 11 | 184 | 11.3 | 22.5 | 0.00 | 0.00 | 0.00 | 83 | 1012.4 |
| 20260507075459 | 11 | 169 | 8.0 | 17.7 | 0.00 | 0.00 | 0.00 | 84 | 1012.4 |
| 20260507075000 | 11 | 165 | 14.5 | 22.5 | 0.00 | 0.00 | 0.00 | 84 | 1012.4 |
| 20260507074459 | 11 | 160 | 14.5 | 22.5 | 0.00 | 0.00 | 0.00 | 85 | 1012.3 |
| 20260507073959 | 11 | 182 | 11.3 | 19.3 | 0.00 | 0.00 | 0.00 | 85 | 1012.3 |
| 20260507073459 | 11 | 150 | 9.7 | 19.3 | 0.00 | 0.00 | 0.00 | 86 | 1012.4 |
| 20260507072959 | 11 | 157 | 16.1 | 19.3 | 0.00 | 0.00 | 0.00 | 86 | 1012.3 |
| 20260507072459 | 11 | 181 | 4.8 | 22.5 | 0.00 | 0.00 | 0.00 | 86 | 1012.2 |
| 20260507071959 | 11 | 194 | 12.9 | 19.3 | 0.00 | 0.00 | 0.00 | 86 | 1012.2 |
| 20260507071500 | 11 | 163 | 8.0 | 25.7 | 0.00 | 0.00 | 0.00 | 87 | 1012.2 |
| 20260507071000 | 11 | 178 | 14.5 | 25.7 | 0.00 | 0.00 | 0.00 | 88 | 1012.2 |
| 20260507070500 | 11 | 182 | 3.2 | 24.1 | 0.00 | 0.00 | 0.00 | 88 | 1012.2 |
| 20260507065959 | 10 | 132 | 8.0 | 24.1 | 0.00 | 0.00 | 0.00 | 88 | 1012.2 |
| 20260507065458 | 10 | 158 | 11.3 | 16.1 | 0.00 | 0.00 | 0.00 | 88 | 1012.2 |
| 20260507064459 | 10 | 188 | 8.0 | 12.9 | 0.00 | 0.00 | 0.00 | 88 | 1012.2 |
| 20260507063958 | 10 | 159 | 3.2 | 4.8 | 0.00 | 0.00 | 0.00 | 88 | 1012.2 |
| 20260507063458 | 10 | 115 | 1.6 | 4.8 | 0.00 | 0.00 | 0.00 | 88 | 1012.3 |
| 20260507062958 | 10 | 86 | 3.2 | 4.8 | 0.00 | 0.00 | 0.00 | 88 | 1012.2 |
| 20260507062000 | 10 | 96 | 0.0 | 4.8 | 0.00 | 0.00 | 0.00 | 88 | 1012.2 |
| 20260507060958 | 9 | 81 | 3.2 | 4.8 | 0.00 | 0.00 | 0.00 | 88 | 1012.2 |
| 20260507060458 | 9 | 131 | 1.6 | 4.8 | 0.00 | 0.00 | 0.00 | 88 | 1012.2 |
| 20260507054958 | 8 | 149 | 4.8 | 8.0 | 0.00 | 0.00 | 0.00 | 87 | 1012.2 |
| 20260507054459 | 8 | 144 | 3.2 | 6.4 | 0.00 | 0.00 | 0.00 | 87 | 1012.2 |
| 20260507053457 | 8 | 111 | 3.2 | 4.8 | 0.00 | 0.00 | 0.00 | 87 | 1012.2 |
| 20260507052958 | 8 | 111 | 1.6 | 4.8 | 0.00 | 0.00 | 0.00 | 87 | 1012.0 |
| 20260507052500 | 8 | 119 | 1.6 | 4.8 | 0.00 | 0.00 | 0.00 | 87 | 1012.0 |
| 20260507051958 | 8 | 117 | 1.6 | 3.2 | 0.00 | 0.00 | 0.00 | 87 | 1012.1 |
| 20260507051458 | 8 | 117 | 0.0 | 3.2 | 0.00 | 0.00 | 0.00 | 87 | 1012.1 |
| 20260507050958 | 8 | 66 | 0.0 | 4.8 | 0.00 | 0.00 | 0.00 | 87 | 1012.1 |
| 20260507050457 | 8 | 109 | 1.6 | 4.8 | 0.00 | 0.00 | 0.00 | 87 | 1012.1 |
| 20260507045959 | 8 | 57 | 0.0 | 3.2 | 0.00 | 0.00 | 0.00 | 87 | 1012.1 |
| 20260507045458 | 8 | 143 | 0.0 | 0.0 | 0.00 | 0.00 | 0.00 | 87 | 1012.2 |
| 20260507043459 | 8 | 81 | 0.0 | 0.0 | 0.00 | 0.00 | 0.00 | 87 | 1012.0 |
| 20260507042959 | 8 | 85 | 0.0 | 0.0 | 0.00 | 0.00 | 0.00 | 87 | 1012.0 |
| 20260507042458 | 8 | 117 | 0.0 | 0.0 | 0.00 | 0.00 | 0.00 | 86 | 1012.0 |
| 20260507041959 | 8 | 117 | 0.0 | 0.0 | 0.00 | 0.00 | 0.00 | 86 | 1012.1 |
| 20260507041458 | 8 | 117 | 0.0 | 0.0 | 0.00 | 0.00 | 0.00 | 86 | 1012.1 |
| 20260507040958 | 7 | 110 | 0.0 | 0.0 | 0.00 | 0.00 | 0.00 | 86 | 1012.1 |
| 20260507040458 | 7 | 105 | 0.0 | 0.0 | 0.00 | 0.00 | 0.00 | 86 | 1012.0 |
| 20260507040002 | 7 | 105 | 0.0 | 3.2 | 0.00 | 0.00 | 0.00 | 86 | 1012.0 |
| 20260507035000 | 7 | 105 | 0.0 | 3.2 | 0.00 | 0.00 | 0.00 | 86 | 1012.0 |
| 20260507034500 | 7 | 105 | 3.2 | 3.2 | 0.00 | 0.00 | 0.00 | 86 | 1012.1 |
| 20260507033500 | 7 | 95 | 1.6 | 4.8 | 0.00 | 0.00 | 0.00 | 86 | 1012.1 |
| 20260507032459 | 7 | 69 | 0.0 | 0.0 | 0.00 | 0.00 | 0.00 | 86 | 1012.1 |
| 20260507031959 | 7 | 306 | 0.0 | 0.0 | 0.00 | 0.00 | 0.00 | 86 | 1012.1 |
| 20260507031459 | 7 | 306 | 0.0 | 0.0 | 0.00 | 0.00 | 0.00 | 86 | 1012.2 |
| 20260507030959 | 7 | 306 | 0.0 | 0.0 | 0.00 | 0.00 | 0.00 | 86 | 1012.2 |
| 20260507030500 | 7 | 306 | 0.0 | 0.0 | 0.00 | 0.00 | 0.00 | 86 | 1012.2 |
| 20260507030001 | 7 | 306 | 0.0 | 0.0 | 0.00 | 0.00 | 0.00 | 86 | 1012.1 |
| 20260507025500 | 7 | 306 | 0.0 | 0.0 | 0.00 | 0.00 | 0.00 | 86 | 1012.1 |
| 20260507024501 | 7 | 306 | 0.0 | 0.0 | 0.00 | 0.00 | 0.00 | 85 | 1012.1 |
| 20260507023458 | 7 | 306 | 0.0 | 0.0 | 0.00 | 0.00 | 0.00 | 85 | 1012.1 |
| 20260507023001 | 7 | 306 | 0.0 | 0.0 | 0.00 | 0.00 | 0.00 | 85 | 1012.1 |
| 20260507022500 | 7 | 306 | 0.0 | 0.0 | 0.00 | 0.00 | 0.00 | 85 | 1012.1 |
| 20260507021959 | 7 | 306 | 0.0 | 0.0 | 0.00 | 0.00 | 0.00 | 85 | 1012.1 |
| 20260507021459 | 7 | 306 | 0.0 | 0.0 | 0.00 | 0.00 | 0.00 | 85 | 1012.1 |
| 20260507020959 | 7 | 306 | 0.0 | 0.0 | 0.00 | 0.00 | 0.00 | 85 | 1012.2 |
| 20260507020459 | 7 | 306 | 0.0 | 0.0 | 0.00 | 0.00 | 0.00 | 85 | 1012.3 |
| 20260507020000 | 7 | 306 | 0.0 | 0.0 | 0.00 | 0.00 | 0.00 | 85 | 1012.3 |
| 20260507015500 | 7 | 306 | 0.0 | 0.0 | 0.00 | 0.00 | 0.00 | 85 | 1012.3 |
| 20260507015000 | 7 | 306 | 0.0 | 0.0 | 0.00 | 0.00 | 0.00 | 85 | 1012.3 |
| 20260507014500 | 7 | 306 | 0.0 | 0.0 | 0.00 | 0.00 | 0.00 | 85 | 1012.3 |
| 20260507013959 | 7 | 306 | 0.0 | 0.0 | 0.00 | 0.00 | 0.00 | 85 | 1012.4 |
| 20260507013500 | 7 | 306 | 0.0 | 0.0 | 0.00 | 0.00 | 0.00 | 85 | 1012.4 |
| 20260507012500 | 7 | 306 | 0.0 | 0.0 | 0.00 | 0.00 | 0.00 | 85 | 1012.4 |
| 20260507012000 | 7 | 330 | 0.0 | 0.0 | 0.00 | 0.00 | 0.00 | 85 | 1012.4 |
| 20260507011500 | 7 | 330 | 0.0 | 0.0 | 0.00 | 0.00 | 0.00 | 85 | 1012.4 |
| 20260507011000 | 7 | 330 | 0.0 | 0.0 | 0.00 | 0.00 | 0.00 | 85 | 1012.4 |
| 20260507010502 | 7 | 330 | 0.0 | 0.0 | 0.00 | 0.00 | 0.00 | 84 | 1012.6 |
| 20260507010002 | 7 | 330 | 0.0 | 0.0 | 0.00 | 0.00 | 0.00 | 84 | 1012.5 |
| 20260507005501 | 7 | 330 | 0.0 | 1.6 | 0.00 | 0.00 | 0.00 | 84 | 1012.6 |
| 20260507005000 | 7 | 330 | 0.0 | 1.6 | 0.00 | 0.00 | 0.00 | 84 | 1012.5 |
| 20260507004459 | 7 | 330 | 1.6 | 1.6 | 0.00 | 0.00 | 0.00 | 84 | 1012.6 |
| 20260507004000 | 7 | 330 | 0.0 | 0.0 | 0.00 | 0.00 | 0.00 | 83 | 1012.6 |
| 20260507003500 | 7 | 330 | 0.0 | 0.0 | 0.00 | 0.00 | 0.00 | 83 | 1012.6 |
| 20260507003000 | 7 | 330 | 0.0 | 0.0 | 0.00 | 0.00 | 0.00 | 83 | 1012.6 |
| 20260507002500 | 7 | 330 | 0.0 | 0.0 | 0.00 | 0.00 | 0.00 | 83 | 1012.7 |
| 20260507002000 | 7 | 330 | 0.0 | 0.0 | 0.00 | 0.00 | 0.00 | 83 | 1012.7 |
| 20260507001501 | 6 | 330 | 0.0 | 0.0 | 0.00 | 0.00 | 0.00 | 83 | 1012.6 |
| 20260507001000 | 6 | 330 | 0.0 | 0.0 | 0.00 | 0.00 | 0.00 | 83 | 1012.8 |
| 20260507000002 | 6 | 330 | 0.0 | 0.0 | 0.00 | 0.00 | 0.00 | 83 | 1012.8 |
| 20260506235458 | 6 | 330 | 0.0 | 0.0 | 0.00 | 0.00 | 0.00 | 83 | 1012.8 |
| 20260506235000 | 6 | 330 | 0.0 | 0.0 | 0.00 | 0.00 | 0.00 | 82 | 1012.7 |
| 20260506234000 | 6 | 330 | 0.0 | 1.6 | 0.00 | 0.00 | 0.00 | 82 | 1012.8 |
| 20260506233500 | 6 | 330 | 0.0 | 3.2 | 0.00 | 0.00 | 0.00 | 82 | 1012.8 |
| 20260506233000 | 6 | 330 | 0.0 | 3.2 | 0.00 | 0.00 | 0.00 | 82 | 1012.8 |
| 20260506232500 | 6 | 330 | 0.0 | 1.6 | 0.00 | 0.00 | 0.00 | 82 | 1012.7 |
| 20260506231500 | 6 | 330 | 0.0 | 3.2 | 0.00 | 0.00 | 0.00 | 82 | 1012.6 |
| 20260506231000 | 6 | 330 | 1.6 | 3.2 | 0.00 | 0.00 | 0.00 | 81 | 1012.7 |
| 20260506230003 | 6 | 330 | 0.0 | 1.6 | 0.00 | 0.00 | 0.00 | 81 | 1012.8 |
| 20260506224959 | 6 | 330 | 0.0 | 0.0 | 0.00 | 0.00 | 0.00 | 81 | 1012.8 |
| 20260506224001 | 6 | 330 | 0.0 | 0.0 | 0.00 | 0.00 | 0.00 | 80 | 1012.8 |
| 20260506223459 | 6 | 330 | 0.0 | 0.0 | 0.00 | 0.00 | 0.00 | 80 | 1012.7 |
| 20260506222001 | 6 | 330 | 0.0 | 0.0 | 0.00 | 0.00 | 0.00 | 80 | 1012.7 |
| 20260506220959 | 7 | 330 | 0.0 | 1.6 | 0.00 | 0.00 | 0.00 | 80 | 1012.6 |